Weather History for Winnemucca, NV

Change the Weather History Date:

Thursday, January 17, 2013

  Actual Average Record
Temperature  
Mean Temperature 4 °F 30 °F  
Max Temperature 23 °F 42 °F 64 °F (1971)
Min Temperature -15 °F 19 °F -22 °F (1917)
Degree Days  
Heating Degree Days 61 35  
Month to date heating degree days 970 606  
Since 1 July heating degree days 3306 3279  
Cooling Degree Days 0 0  
Month to date cooling degree days 0 0  
Year to date cooling degree days 0 0  
Moisture  
Dew Point -7 °F    
Average Humidity 77    
Maximum Humidity 95    
Minimum Humidity 59    
Precipitation  
Precipitation 0.00 in 0.03 in 0.59 in (1945)
Month to date precipitation 0.15 0.52  
Year to date precipitation 0.15 0.52  
Snow  
Snow 0.00 in 0.10 in 7.30 in (1945)
Month to date snowfall 2.0 2.1  
Since 1 July snowfall 16.8 10.9  
Snow Depth 4.00 in    
Sea Level Pressure  
Sea Level Pressure 30.72 in    
Wind  
Wind Speed 4 mph (ESE)    
Max Wind Speed 12 mph    
Max Gust Speed -    
Visibility 8 miles    
Events      
T = Trace of Precipitation, MM = Missing Value Source: NWS Daily Summary

Daily Weather History Graph

Daily Weather History Graph

Search for Another Location

Airport:

Trip Planner

Search our weather history database for the weather conditions in past years. The results will help you decide how hot, cold, wet, or windy it might be!

Date:

Astronomy

Jan. 17, 2013 Rise Set
Actual Time 7:12 AM PST 4:50 PM PST
Civil Twilight 6:42 AM PST 5:20 PM PST
Nautical Twilight 6:08 AM PST 5:54 PM PST
Astronomical Twilight 5:36 AM PST 6:27 PM PST
Moon 10:18 AM PST (1/17) 11:50 PM PST (1/17)
Length of Visible Light 10h 38m
Length of Day
9h 38m
Waxing Crescent, 39% of the Moon is Illuminated
Jan 17
Waxing Crescent
Jan 18
First Quarter
Jan 26
Full
Feb 3
Last Quarter
Feb 9
New

Hourly Weather History & Observations

Time (PST) Temp. Windchill Dew Point Humidity Pressure Visibility Wind Dir Wind Speed Gust Speed Precip Events Conditions
12:56 AM -9.0 °F - -13.0 °F 83% 30.81 in 10.0 mi Calm Calm - N/A   Clear
1:56 AM -9.9 °F -26.3 °F -14.1 °F 82% 30.80 in 10.0 mi SE 8.1 mph - N/A   Clear
2:56 AM -4.0 °F - -7.1 °F 87% 30.77 in 10.0 mi Calm Calm - N/A   Clear
3:56 AM -9.0 °F - -11.9 °F 87% 30.79 in 10.0 mi Calm Calm - N/A   Clear
4:23 AM -9.4 °F - -14.8 °F 77% 30.58 in 10.0 mi Calm Calm - N/A   Scattered Clouds
4:32 AM -9.4 °F - -14.8 °F 77% 30.58 in 10.0 mi Calm Calm - N/A   Mostly Cloudy
4:56 AM -9.0 °F -20.4 °F -14.1 °F 79% 30.80 in 10.0 mi ESE 4.6 mph - N/A   Mostly Cloudy
5:26 AM -9.4 °F - -14.8 °F 77% 30.56 in 0.8 mi Calm Calm - N/A   Mist
5:42 AM -13.0 °F - -14.8 °F 92% 30.57 in 1.2 mi Calm Calm - N/A   Clear
5:44 AM -13.0 °F - -16.6 °F 84% 30.57 in 2.0 mi Calm Calm - N/A   Clear
5:52 AM -13.0 °F - -16.6 °F 84% 30.57 in 5.0 mi Calm Calm - N/A   Clear
5:56 AM -14.1 °F -23.9 °F -17.0 °F 87% 30.83 in 7.0 mi WSW 3.5 mph - N/A   Clear
6:56 AM -11.9 °F - -17.0 °F 78% 30.86 in 10.0 mi Calm Calm - N/A   Clear
7:17 AM -13.0 °F -22.7 °F -18.4 °F 77% 30.58 in 2.5 mi South 3.5 mph - N/A   Haze
7:19 AM -13.0 °F -22.7 °F -18.4 °F 77% 30.58 in 0.8 mi South 3.5 mph - N/A   Haze
7:33 AM -13.0 °F -25.1 °F -16.6 °F 84% 30.58 in 2.0 mi South 4.6 mph - N/A   Mostly Cloudy
7:41 AM -11.2 °F - -16.6 °F 77% 30.58 in 4.0 mi Calm Calm - N/A   Overcast
7:56 AM -11.0 °F -22.8 °F -14.1 °F 86% 30.89 in 5.0 mi SE 4.6 mph - N/A   Overcast
8:20 AM -5.8 °F -14.5 °F -7.6 °F 92% 30.59 in 7.0 mi SE 3.5 mph - N/A   Scattered Clouds
8:56 AM -2.0 °F - -5.1 °F 87% 30.89 in 8.0 mi Calm Calm - N/A   Clear
9:56 AM 5.0 °F - 1.9 °F 87% 30.86 in 10.0 mi Calm Calm - N/A   Clear
10:56 AM 14.0 °F 8.2 °F 5.0 °F 67% 30.81 in 10.0 mi North 3.5 mph - N/A   Clear
11:56 AM 17.1 °F 6.6 °F 8.1 °F 68% 30.76 in 10.0 mi NNE 8.1 mph - N/A   Clear
12:56 PM 19.9 °F 9.3 °F 10.0 °F 65% 30.74 in 10.0 mi NNE 9.2 mph - N/A   Clear
1:56 PM 21.0 °F 10.6 °F 10.9 °F 65% 30.71 in 10.0 mi NNE 9.2 mph - N/A   Clear
2:56 PM 23.0 °F 14.7 °F 10.9 °F 60% 30.67 in 10.0 mi NNE 6.9 mph - N/A   Clear
3:56 PM 21.9 °F 14.5 °F 10.9 °F 63% 30.69 in 10.0 mi ENE 5.8 mph - N/A   Clear
4:56 PM 15.1 °F 7.7 °F 8.1 °F 74% 30.71 in 10.0 mi East 4.6 mph - N/A   Clear
5:56 PM 6.1 °F - 1.9 °F 83% 30.77 in 10.0 mi Calm Calm - N/A   Clear
6:56 PM 1.9 °F - -0.9 °F 88% 30.78 in 10.0 mi Calm Calm - N/A   Clear
7:56 PM -0.9 °F -11.0 °F -4.0 °F 87% 30.79 in 10.0 mi SE 4.6 mph - N/A   Clear
8:56 PM -2.9 °F -11.2 °F -7.1 °F 82% 30.76 in 10.0 mi South 3.5 mph - N/A   Clear
9:56 PM -4.0 °F -16.3 °F -8.0 °F 83% 30.73 in 10.0 mi SE 5.8 mph - N/A   Clear
10:56 PM -6.0 °F - -9.9 °F 83% 30.71 in 10.0 mi Calm Calm - N/A   Clear
11:56 PM -8.0 °F -21.0 °F -13.0 °F 79% 30.71 in 10.0 mi SE 5.8 mph - N/A   Clear